Probability
0 0 0 0 0 0 0 0 0 0 0 0 0 0 0 0 1 2 3 3 1 0 0 0 0 0 0 0 0 0 0 0 0 0 0 0 0 0 0 0 0 0 0
0 0 0 0 0 0 0 0 0 0 0 0 0 0 0 0 1 2 3 3 2 1 0 0 0 0 0 0 0 0 0 0 0 0 0 0 0 0 1 1 0 0 0
0 0 0 0 0 0 0 0 0 0 0 0 0 0 0 0 0 1 2 3 2 1 0 0 0 0 0 0 0 0 0 0 0 0 1 0 0 1 2 2 1 0 0
0 0 0 0 0 0 0 0 0 0 0 0 0 0 1 1 0 0 1 1 2 1 0 0 0 0 0 0 0 0 0 0 0 0 0 0 1 2 3 2 1 0 0
0 0 0 0 0 0 0 0 0 0 0 0 0 0 1 1 0 0 0 0 1 1 1 0 0 0 0 0 0 0 0 0 0 0 0 1 2 3 3 3 1 0 1
0 0 0 0 0 0 0 0 0 0 0 0 0 0 0 0 0 0 0 0 0 1 1 0 0 0 0 0 0 0 0 0 0 0 1 2 3 3 3 3 2 1 2
0 0 0 0 0 0 0 0 0 0 0 0 0 0 0 0 0 0 0 0 0 0 0 0 0 0 0 0 0 0 0 0 0 0 1 2 2 2 2 2 1 1 2
0 0 0 0 0 0 0 0 0 0 0 0 0 0 0 0 0 0 0 0 0 0 0 0 0 0 0 0 0 0 0 0 0 0 0 1 1 1 1 1 1 1 2
0 0 0 0 0 0 0 0 0 0 0 0 0 0 0 0 0 0 0 0 0 0 0 0 0 0 0 0 0 0 0 0 0 0 0 0 1 1 1 2 3 2 1
0 0 0 0 1 1 0 0 0 0 0 0 0 0 0 0 0 0 0 0 0 0 0 0 0 0 0 0 0 0 0 0 0 0 0 0 1 2 2 3 3 2 1
1 0 0 0 1 2 1 0 0 0 0 0 0 0 0 0 0 0 0 0 0 0 0 0 0 0 0 0 0 0 0 0 0 0 0 1 1 1 2 3 3 1 0
2 1 0 0 1 2 1 0 0 0 0 0 0 0 0 0 0 0 0 0 0 0 0 0 0 0 0 0 0 0 0 0 0 0 1 1 1 0 1 2 2 1 0
3 2 1 1 0 1 1 0 0 0 0 0 0 0 0 0 0 0 0 0 0 0 0 0 0 0 0 0 0 0 0 0 0 0 1 1 1 0 0 1 1 0 0
3 3 3 2 1 1 0 0 0 0 0 0 0 0 0 0 0 0 0 0 0 0 0 0 0 0 0 0 0 0 0 0 0 0 0 1 1 1 0 0 0 0 0
1 2 3 3 3 2 1 1 0 0 0 0 0 0 0 0 0 0 0 0 0 0 0 0 0 0 0 0 0 0 0 0 0 0 0 1 1 1 0 0 0 0 0
0 1 1 2 3 3 3 2 1 0 0 0 0 0 0 0 0 0 0 0 0 0 0 0 0 0 0 0 0 0 0 0 0 0 0 0 0 1 1 1 1 1 1
0 0 0 1 2 3 3 3 2 1 0 0 0 0 0 0 0 0 0 0 0 0 0 0 0 0 0 0 0 0 0 0 0 0 0 0 0 0 1 2 3 3 3
0 0 0 0 1 3 3 3 3 2 1 0 0 0 0 0 0 0 0 0 0 0 0 0 0 0 0 0 0 0 0 0 0 0 0 0 0 0 1 2 4 6 6
0 0 0 0 1 2 3 3 3 2 1 0 0 0 0 0 0 0 0 0 0 0 0 0 0 0 0 0 0 0 0 0 0 0 0 0 0 0 0 1 4 6 7
0 0 0 0 1 2 2 2 2 1 0 0 0 0 0 0 0 0 0 0 0 0 0 0 0 0 0 0 0 0 0 0 0 0 0 0 0 1 1 2 4 6 5
0 0 0 0 0 1 1 1 1 0 0 0 0 0 0 0 0 0 0 0 0 0 0 0 0 0 0 0 0 0 0 0 0 0 0 0 0 1 2 3 4 5 4
0 0 0 0 0 0 0 0 0 0 0 0 0 0 0 0 0 0 0 0 0 0 0 0 0 0 0 0 0 0 0 0 0 0 0 0 0 1 2 2 3 3 3
0 0 0 0 0 0 1 1 1 1 1 0 0 0 0 0 0 0 0 0 0 0 0 0 0 0 0 0 0 0 0 0 0 0 0 0 0 0 1 1 1 1 1
0 0 0 0 1 1 2 2 2 2 2 1 0 0 0 0 0 0 0 0 0 0 0 0 0 0 0 0 0 0 0 0 0 0 0 0 0 0 0 0 0 0 0
0 0 0 1 2 3 3 3 3 3 2 1 0 0 0 0 0 0 0 0 0 0 0 0 0 0 0 0 0 0 0 0 0 0 0 0 0 0 0 0 0 0 0
0 0 1 2 3 3 3 3 3 3 2 1 0 0 0 0 0 0 0 0 0 0 0 0 0 0 0 0 0 0 0 0 0 0 0 0 0 0 0 0 0 0 0
Wind_Speed
0 0 5 8 9 9 9 9 9 9 10 10 10 11 11 11 12 12 11 11 11 11 10 10 10 10 9 9 8 8 7 7 7 6 6 6 6 6 6 6 6 4 7
3 3 7 9 9 9 9 9 9 9 9 10 10 10 10 11 11 11 11 11 11 11 10 10 10 10 9 9 8 7 7 6 6 6 5 5 5 5 6 6 6 4 6
6 4 6 9 9 9 9 8 8 9 9 9 10 10 11 11 11 11 10 11 10 10 10 10 10 9 9 8 8 7 7 7 6 6 4 2 2 5 5 5 6 6 6
6 4 6 9 9 9 9 8 8 8 8 9 9 10 10 10 11 10 10 10 10 9 9 9 9 9 8 8 7 7 7 7 7 6 3 1 2 5 5 5 5 5 5
6 4 5 9 9 9 8 8 8 8 8 8 9 10 10 10 10 10 10 10 9 9 9 8 8 8 8 7 7 7 7 7 8 6 4 3 2 4 5 5 5 5 5
6 4 5 9 8 8 8 8 8 9 8 8 8 9 9 9 10 10 9 9 9 8 8 8 7 7 7 7 7 7 8 8 7 4 4 3 2 5 6 6 6 6 5
5 4 5 8 8 8 8 8 8 9 8 8 8 8 9 8 9 9 9 8 8 8 8 8 7 7 7 7 7 7 8 8 5 4 3 2 3 6 7 7 6 6 5
7 5 4 8 8 8 8 8 8 8 8 8 8 8 8 7 7 7 7 7 7 8 8 7 7 7 7 7 7 7 7 7 5 5 3 2 5 7 7 7 6 6 5
6 4 3 3 5 7 8 7 8 7 7 8 8 8 7 7 6 6 6 7 7 7 6 6 6 6 6 7 8 8 8 8 4 3 3 2 6 7 7 8 7 6 5
5 4 3 3 2 2 3 6 7 6 6 7 7 7 6 5 5 5 5 5 6 6 5 4 5 5 6 7 8 8 8 7 4 3 2 2 6 7 7 7 7 6 6
5 3 3 3 2 2 2 4 4 5 5 5 4 6 5 2 2 3 4 5 5 5 5 5 5 5 6 6 7 7 6 3 3 2 2 4 6 7 6 6 6 6 6
5 4 3 3 3 2 2 2 2 2 2 2 2 2 2 1 1 2 3 5 5 5 5 5 5 5 5 3 5 6 3 3 2 2 2 5 5 6 6 6 6 6 6
5 4 4 3 3 3 1 2 1 1 1 1 1 1 1 1 1 2 2 2 3 3 3 4 4 2 2 2 2 2 2 2 2 1 2 4 5 6 6 6 6 6 6
5 5 4 4 3 3 2 2 2 1 1 1 1 1 1 1 1 1 1 1 1 1 2 2 2 3 3 3 3 2 2 2 2 1 2 4 4 5 5 5 5 5 5
4 5 5 5 4 3 3 2 2 2 1 1 1 1 2 1 1 1 1 1 1 1 2 2 2 3 3 3 3 3 2 2 2 2 2 4 4 4 4 5 4 4 5
4 4 4 4 5 4 3 2 2 2 2 2 1 1 2 2 1 2 2 2 2 2 2 2 3 2 2 2 3 3 2 2 2 2 2 3 5 4 4 4 5 5 4
5 4 4 4 4 5 4 3 2 2 2 2 2 1 2 3 3 3 2 2 1 2 2 3 3 3 3 3 3 2 2 2 2 2 2 2 2 2 3 4 4 4 4
4 4 4 5 4 4 4 3 2 2 2 2 2 1 2 3 4 3 2 2 2 2 2 2 2 3 3 3 2 2 2 2 2 2 2 2 2 1 2 3 4 4 4
5 5 4 4 5 4 4 3 3 3 3 2 2 1 2 3 4 3 2 2 2 2 2 2 2 2 2 2 2 2 2 1 1 2 2 2 2 1 1 2 3 3 3
5 5 4 4 4 4 3 3 3 3 2 2 2 2 2 2 3 3 2 3 3 3 3 2 2 2 1 1 2 3 2 2 1 2 2 2 2 2 1 2 2 2 3
5 5 5 5 4 4 2 2 2 2 1 1 1 2 2 3 3 4 3 2 3 2 2 2 2 2 2 2 2 3 3 3 3 2 2 2 3 2 2 2 1 1 2
5 5 5 5 4 4 3 2 2 2 1 1 1 1 2 3 3 3 3 2 2 2 2 2 2 1 1 2 2 2 2 4 4 3 2 2 2 2 2 2 2 2 1
5 5 5 5 5 4 4 3 3 2 2 1 1 1 0 2 3 3 3 2 2 2 1 1 2 2 1 1 1 2 2 1 2 3 3 3 3 2 2 2 2 2 1
6 5 5 5 5 5 5 5 4 3 2 1 1 1 1 1 2 2 3 2 2 2 1 1 1 1 2 1 1 1 1 3 2 2 3 3 3 2 2 1 2 1 1
6 5 5 5 5 5 5 5 5 3 2 1 1 1 1 1 1 2 2 2 1 1 1 1 1 1 1 1 1 0 1 1 1 2 1 3 3 2 1 1 1 1 1
4 4 4 5 4 4 5 5 5 5 3 3 1 2 1 0 0 1 2 2 2 1 2 1 1 1 1 1 1 1 1 1 1 2 1 1 2 3 2 1 1 1 1
Wind_Direction
93 214 108 98 93 89 90 88 87 87 86 88 92 88 87 86 86 85 83 83 83 83 81 77 76 75 76 77 81 82 82 84 85 86 86 87 90 96 100 101 98 99 107
148 138 109 100 96 92 92 94 92 90 90 91 94 92 89 88 88 86 85 84 83 82 80 78 76 75 73 73 74 75 76 76 80 81 82 89 93 99 101 101 105 106 109
124 124 112 105 99 93 92 96 95 94 93 95 97 94 91 89 90 89 88 87 85 83 82 80 76 74 71 71 72 72 69 69 70 70 73 85 100 104 104 105 107 108 116
126 127 116 110 102 96 92 93 95 98 100 98 97 97 94 92 91 91 89 88 87 85 84 80 76 75 74 71 70 67 64 64 64 61 49 81 111 110 108 106 110 119 121
123 122 121 113 107 102 97 94 96 99 100 102 100 97 97 96 93 92 89 87 86 86 84 78 76 74 74 72 69 66 63 62 63 53 42 67 83 100 102 101 105 113 116
124 122 123 116 110 105 101 97 100 100 100 100 102 100 98 97 94 92 91 90 88 85 82 77 75 74 72 71 71 68 65 62 58 46 48 61 76 89 94 97 98 103 107
129 128 129 119 114 108 104 100 102 103 100 103 105 102 100 96 95 96 95 93 90 86 82 77 72 71 69 67 68 67 64 64 58 50 55 64 79 90 96 94 92 93 99
137 133 128 122 119 112 107 105 105 102 101 103 107 105 104 100 99 98 96 96 96 91 86 79 71 67 66 65 64 67 67 65 61 56 50 64 88 88 92 90 87 87 92
132 128 122 126 122 121 115 111 110 107 104 104 105 104 103 101 101 100 98 99 101 97 90 81 71 66 65 65 66 69 71 68 58 54 67 62 85 85 85 84 82 80 82
120 123 128 127 115 115 121 117 114 110 105 102 101 98 96 94 93 89 87 92 95 93 85 75 66 62 63 65 65 65 66 62 55 51 47 72 83 84 84 85 83 77 80
123 119 123 128 120 118 116 109 107 107 103 101 95 94 80 52 55 72 74 84 84 79 70 63 58 53 51 56 60 65 61 55 56 47 48 78 86 86 85 86 86 83 84
145 147 144 138 134 129 125 98 83 88 83 77 68 79 73 59 57 73 63 64 63 62 55 51 45 45 42 37 52 57 51 50 51 42 58 75 87 90 92 92 92 92 90
158 155 156 157 150 144 133 113 92 70 70 74 76 85 88 71 44 42 43 31 30 40 36 30 28 35 47 49 55 54 51 48 36 23 45 77 90 93 96 98 96 98 99
152 160 159 157 149 153 144 132 121 106 92 89 87 98 100 94 72 54 55 35 30 34 44 34 40 48 54 61 67 69 56 54 38 17 44 70 90 99 100 105 105 104 106
156 165 163 156 153 152 141 139 125 124 116 113 84 79 102 105 99 88 71 55 37 43 54 54 56 60 55 57 63 70 62 52 42 27 21 51 65 82 97 104 111 115 114
162 163 160 153 150 144 140 138 133 125 114 99 93 91 105 108 108 96 77 65 47 51 56 63 62 59 55 58 56 55 57 53 41 37 24 29 50 67 84 93 102 107 111
164 157 155 149 146 145 143 144 132 122 117 113 107 93 96 104 111 106 92 73 57 66 70 68 54 47 55 56 46 38 45 44 41 34 28 18 11 44 76 88 94 100 102
151 149 154 150 140 143 142 139 124 114 109 104 102 97 97 100 106 104 95 83 71 66 68 73 62 56 45 43 33 21 25 26 32 33 33 22 7 13 48 74 84 92 98
150 144 143 140 138 140 135 125 118 115 103 101 92 84 93 103 103 102 97 91 83 70 61 72 61 69 57 35 34 38 24 20 20 42 31 13 5 15 27 49 70 76 86
148 134 123 121 129 129 114 100 89 81 76 81 88 88 99 104 104 103 96 85 83 76 59 60 69 49 59 29 47 35 10 4 20 34 29 19 17 18 29 31 33 39 61
136 137 132 122 122 122 113 117 113 121 114 75 81 82 94 103 107 107 101 87 84 86 82 77 79 59 30 27 51 17 360 8 27 25 21 25 26 24 35 32 36 33 36
155 154 145 142 143 142 136 140 144 145 147 139 91 87 104 114 113 114 117 115 104 95 75 65 78 70 25 40 87 71 10 352 354 2 4 22 18 25 32 35 44 49 43
161 164 161 156 149 144 128 110 94 74 65 60 66 52 91 125 113 110 120 122 115 111 115 103 102 102 77 6 71 122 122 240 318 338 352 5 6 23 17 15 32 33 42
178 174 159 158 151 145 138 132 134 132 145 198 174 157 133 127 118 118 125 129 131 127 134 146 108 117 116 55 352 44 146 162 147 331 334 342 351 2 353 11 15 13 30
172 167 163 159 150 148 148 149 143 130 146 135 125 138 136 159 145 141 142 146 150 146 151 132 106 112 130 142 158 99 59 59 121 142 289 321 341 331 328 334 341 348 349
156 154 152 156 155 152 149 150 149 148 146 134 141 161 177 216 224 178 164 168 172 173 176 178 163 141 137 130 145 149 150 149 176 149 194 284 315 313 323 315 286 246 281